Regional Weather Roundup
Issued by NWS

Home | Current Version | Previous Version | Graphics & Text | Print | Product List | Glossary Off
Versions: 1 2 3 4 5 6 7 8 9 10 11 12 13 14 15 16 17 18 19 20 21 22 23 24 25 26 27 28 29 30 31 32 33 34 35 36 37 38 39 40 41 42 43 44 45 46 47 48 49 50

000
ASUS43 KTOP 221308
RWRKS

WEATHER ROUNDUP FOR KANSAS
NATIONAL WEATHER SERVICE GOODLAND KS
800 AM CDT THU JUN 22 2017

NOTE:  "FAIR" INDICATES FEW OR NO CLOUDS BELOW 12,000 FEET WITH NO
SIGNIFICANT WEATHER AND/OR OBSTRUCTIONS TO VISIBILITY.

KSZ001>006-013>018-027>032-041>047-221400-
NORTHWEST KANSAS

CITY           SKY/WX    TMP DP  RH WIND       PRES   REMARKS
GOODLAND       SUNNY     76  54  46 W20       29.75F
HAYS           SUNNY     71  62  73 S8        29.73F
HILL CITY      SUNNY     71  61  70 S8        29.70F
RUSSELL        SUNNY     73  60  63 S12       29.73R
$$

KSZ061>065-074>080-084>089-221400-
SOUTHWEST KANSAS

CITY           SKY/WX    TMP DP  RH WIND       PRES   REMARKS
DODGE CITY     SUNNY     68  61  78 S8        29.79F
ELKHART          N/A     70  50  49 W13         N/A
GARDEN CITY    SUNNY     70  60  70 SE8       29.77S
GREAT BEND     SUNNY     72  59  63 S8        29.76S
LIBERAL        SUNNY     70  62  76 S14       29.82R
PRATT          MOSUNNY   69  56  64 S13       29.77F
$$

KSZ066>073-081>083-090>101-221400-
SOUTHEAST KANSAS

CITY           SKY/WX    TMP DP  RH WIND       PRES   REMARKS
CHANUTE        SUNNY     73  66  78 SE10      29.79F
COFFEYVILLE    SUNNY     74  69  85 S6        29.80S
HUTCHINSON     MOSUNNY   73  63  70 S13       29.76R
MEDICINE LODGE   N/A     72  59  63 S8        29.77R
NEWTON         SUNNY     72  65  78 S16       29.79R
PARSONS        SUNNY     74  66  76 SE6       29.81S
WICHITA INTL   MOSUNNY   72  66  81 S13       29.77R
WICHITA JABRA  SUNNY     72  66  81 S12G20    29.78R
WICHITA MCCONL SUNNY     72  65  78 S13       29.77S
WINFIELD       SUNNY     72  67  84 SE9       29.80R
$$

KSZ007>012-019>026-033>040-048>060-102>105-221400-
NORTHEAST KANSAS

CITY           SKY/WX    TMP DP  RH WIND       PRES   REMARKS
CONCORDIA      CLOUDY    73  63  70 S18G28    29.70S
EMPORIA        SUNNY     71  66  84 S12G21    29.77F
LAWRENCE       MOSUNNY   74  67  78 SE9       29.77F
MANHATTAN      CLOUDY    74  64  71 S8        29.73F
MARYSVILLE     CLOUDY    73  64  73 S8        29.71F
OLATHE IND     SUNNY     73  66  78 S13G20    29.80F
OLATHE EXE     SUNNY     72  68  87 S13       29.80S
SALINA         MOSUNNY   76  63  64 S17G23    29.74R
TOPEKA BILLARD SUNNY     73  67  81 SW7       29.78R
TOPEKA FORBES  SUNNY     75  67  76 S10       29.77S
$$




USA.gov is the U.S. government's official web portal to all federal, state and local government web resources and services.